{"data":{"norad_id":51871,"epoch":"2026-05-24T23:44:27.883104Z","epoch_age_seconds":76141,"freshness":"FRESH","line1":"1 51871U 22022V   26144.98921161  .00000591  00000+0  55204-4 0  9998","line2":"2 51871  53.2146  26.5971 0001640  58.4334 301.6818 15.08836569234741","mean_motion":15.08836569,"eccentricity":0.000164,"inclination_deg":53.2146,"raan_deg":26.5971,"arg_perigee_deg":58.4334,"mean_anomaly_deg":301.6818,"bstar":5.5204e-5,"rev_number":23474,"period_min":95.437771696797,"perigee_km":538.61934207469,"apogee_km":540.88841028208,"semimajor_km":6917.8908761784,"source":"CELESTRAK","updated_at":"2026-05-25T13:38:16.982161Z"}}